Time,TemperatureF,DewpointF,PressureIn,WindDirection,WindDirectionDegrees,WindSpeedMPH,WindSpeedGustMPH,Humidity,HourlyPrecipIn,Conditions,Clouds,dailyrainin,SoftwareType,DateUTC
2013-03-24 00:05:00,12.2,8.0,30.31,East,94,0.0,0.0,83,0.00,,,0.00,Wunderground v.1.15,2013-03-24 06:05:00,
2013-03-24 00:40:00,11.8,7.9,30.32,East,82,0.0,0.0,84,0.00,,,0.00,Wunderground v.1.15,2013-03-24 06:40:00,
2013-03-24 00:50:00,12.3,7.6,30.32,North,1,0.0,0.0,81,0.00,,,0.00,Wunderground v.1.15,2013-03-24 06:50:00,
2013-03-24 01:10:00,13.2,7.9,30.32,North,5,0.0,0.0,79,0.00,,,0.00,Wunderground v.1.15,2013-03-24 07:10:00,
2013-03-24 01:20:00,14.2,7.7,30.32,WSW,247,0.0,0.0,75,0.00,,,0.00,Wunderground v.1.15,2013-03-24 07:20:00,
2013-03-24 01:25:00,14.3,7.5,30.32,NW,315,0.0,0.0,74,0.00,,,0.00,Wunderground v.1.15,2013-03-24 07:25:00,
2013-03-24 01:30:00,14.2,7.4,30.32,WNW,283,0.0,0.0,74,0.00,,,0.00,Wunderground v.1.15,2013-03-24 07:30:00,
2013-03-24 01:40:00,14.1,7.3,30.32,West,271,0.0,0.0,74,0.00,,,0.00,Wunderground v.1.15,2013-03-24 07:40:00,
2013-03-24 01:55:00,13.8,6.7,30.32,WNW,293,0.0,0.0,73,0.00,,,0.00,Wunderground v.1.15,2013-03-24 07:55:00,
2013-03-24 02:06:00,13.3,6.3,30.31,WSW,241,0.0,0.0,73,0.00,,,0.00,Wunderground v.1.15,2013-03-24 08:06:00,
2013-03-24 02:15:00,12.9,6.2,30.31,East,98,0.0,0.0,74,0.00,,,0.00,Wunderground v.1.15,2013-03-24 08:15:00,
2013-03-24 02:20:00,11.8,5.1,30.31,WSW,253,0.0,0.0,74,0.00,,,0.00,Wunderground v.1.15,2013-03-24 08:20:00,
2013-03-24 02:31:00,12.9,6.2,30.31,West,274,0.0,0.0,74,0.00,,,0.00,Wunderground v.1.15,2013-03-24 08:31:00,
2013-03-24 02:45:00,13.3,6.0,30.31,ENE,68,0.0,0.0,72,0.00,,,0.00,Wunderground v.1.15,2013-03-24 08:45:00,
2013-03-24 03:00:00,12.3,5.6,30.30,NE,44,0.0,0.0,74,0.00,,,0.00,Wunderground v.1.15,2013-03-24 09:00:00,
2013-03-24 03:20:00,12.6,5.0,30.30,West,260,0.0,0.0,71,0.00,,,0.00,Wunderground v.1.15,2013-03-24 09:20:00,
2013-03-24 03:30:00,12.7,5.7,30.29,NW,320,0.0,0.0,73,0.00,,,0.00,Wunderground v.1.15,2013-03-24 09:30:00,
2013-03-24 03:35:00,12.8,5.5,30.29,WSW,243,0.0,0.0,72,0.00,,,0.00,Wunderground v.1.15,2013-03-24 09:35:00,
2013-03-24 03:45:00,12.9,5.9,30.29,NW,326,0.0,0.0,73,0.00,,,0.00,Wunderground v.1.15,2013-03-24 09:45:00,
2013-03-24 04:10:00,12.3,5.0,30.28,WSW,248,0.0,0.0,72,0.00,,,0.00,Wunderground v.1.15,2013-03-24 10:10:00,
2013-03-24 04:16:00,12.4,5.1,30.28,SW,228,0.0,0.0,72,0.00,,,0.00,Wunderground v.1.15,2013-03-24 10:16:00,
2013-03-24 04:25:00,12.1,4.8,30.28,ESE,113,0.0,0.0,72,0.00,,,0.00,Wunderground v.1.15,2013-03-24 10:25:00,
2013-03-24 04:30:00,10.9,3.3,30.28,East,86,0.0,0.0,71,0.00,,,0.00,Wunderground v.1.15,2013-03-24 10:30:00,
2013-03-24 04:35:00,10.2,3.8,30.28,WSW,255,0.0,0.0,75,0.00,,,0.00,Wunderground v.1.15,2013-03-24 10:35:00,
2013-03-24 04:45:00,9.8,3.2,30.28,SSE,147,0.0,0.0,74,0.00,,,0.00,Wunderground v.1.15,2013-03-24 10:45:00,
2013-03-24 05:10:00,7.6,2.4,30.28,North,4,0.0,0.0,79,0.00,,,0.00,Wunderground v.1.15,2013-03-24 11:10:00,
2013-03-24 05:25:00,7.6,2.7,30.28,NE,54,0.0,0.0,80,0.00,,,0.00,Wunderground v.1.15,2013-03-24 11:25:00,
2013-03-24 05:35:00,6.9,1.8,30.29,ENE,74,0.0,0.0,79,0.00,,,0.00,Wunderground v.1.15,2013-03-24 11:35:00,
2013-03-24 05:40:00,6.6,1.7,30.29,NE,34,0.0,0.0,80,0.00,,,0.00,Wunderground v.1.15,2013-03-24 11:40:00,
2013-03-24 05:50:00,6.3,1.7,30.29,NE,45,0.0,0.0,81,0.00,,,0.00,Wunderground v.1.15,2013-03-24 11:50:00,
2013-03-24 05:55:00,6.0,1.4,30.29,NE,46,0.0,0.0,81,0.00,,,0.00,Wunderground v.1.15,2013-03-24 11:55:00,
2013-03-24 06:15:00,5.7,0.9,30.29,ESE,110,0.0,0.0,80,0.00,,,0.00,Wunderground v.1.15,2013-03-24 12:15:00,
2013-03-24 06:25:00,6.0,1.7,30.29,North,352,0.0,0.0,82,0.00,,,0.00,Wunderground v.1.15,2013-03-24 12:25:00,
2013-03-24 06:35:00,6.3,2.2,30.29,WSW,252,0.0,0.0,83,0.00,,,0.00,Wunderground v.1.15,2013-03-24 12:35:00,
2013-03-24 06:55:00,7.0,3.2,30.29,ENE,78,0.0,0.0,84,0.00,,,0.00,Wunderground v.1.15,2013-03-24 12:55:00,
2013-03-24 07:15:00,7.7,3.6,30.30,ENE,78,0.0,0.0,83,0.00,,,0.00,Wunderground v.1.15,2013-03-24 13:15:00,
2013-03-24 07:40:00,9.1,5.0,30.29,WSW,246,0.0,0.0,83,0.00,,,0.00,Wunderground v.1.15,2013-03-24 13:40:00,
2013-03-24 07:55:00,9.8,5.4,30.29,ENE,60,0.0,0.0,82,0.00,,,0.00,Wunderground v.1.15,2013-03-24 13:55:00,
2013-03-24 08:10:00,12.8,7.8,30.29,ENE,65,0.0,0.0,80,0.00,,,0.00,Wunderground v.1.15,2013-03-24 14:10:00,
2013-03-24 08:20:00,13.6,7.7,30.29,ENE,65,0.0,0.0,77,0.00,,,0.00,Wunderground v.1.15,2013-03-24 14:20:00,
2013-03-24 08:25:00,15.1,9.2,30.29,ENE,65,0.0,0.0,77,0.00,,,0.00,Wunderground v.1.15,2013-03-24 14:25:00,
2013-03-24 08:35:00,17.4,9.6,30.28,ESE,117,0.0,0.0,71,0.00,,,0.00,Wunderground v.1.15,2013-03-24 14:35:00,
2013-03-24 08:40:00,17.1,8.7,30.28,ENE,65,0.0,0.0,69,0.00,,,0.00,Wunderground v.1.15,2013-03-24 14:40:00,
2013-03-24 08:45:00,17.6,9.2,30.28,ENE,70,0.0,0.0,69,0.00,,,0.00,Wunderground v.1.15,2013-03-24 14:45:00,
2013-03-24 08:50:00,17.7,9.2,30.28,East,92,0.0,0.0,69,0.00,,,0.00,Wunderground v.1.15,2013-03-24 14:50:00,
2013-03-24 08:55:00,18.9,10.1,30.28,East,87,0.0,0.0,68,0.00,,,0.00,Wunderground v.1.15,2013-03-24 14:55:00,
2013-03-24 09:00:00,20.6,11.4,30.28,ESE,119,0.0,0.0,67,0.00,,,0.00,Wunderground v.1.15,2013-03-24 15:00:00,
2013-03-24 09:05:00,21.7,11.0,30.28,ENE,64,0.0,0.0,63,0.00,,,0.00,Wunderground v.1.15,2013-03-24 15:05:00,
2013-03-24 09:15:00,24.8,12.5,30.28,East,88,0.0,0.0,59,0.00,,,0.00,Wunderground v.1.15,2013-03-24 15:15:00,
2013-03-24 09:20:00,25.7,13.3,30.28,WSW,240,0.0,0.0,59,0.00,,,0.00,Wunderground v.1.15,2013-03-24 15:20:00,
2013-03-24 09:25:00,26.7,12.7,30.28,SE,126,0.0,0.0,55,0.00,,,0.00,Wunderground v.1.15,2013-03-24 15:25:00,
2013-03-24 09:30:00,26.9,12.9,30.28,SE,127,0.0,0.0,55,0.00,,,0.00,Wunderground v.1.15,2013-03-24 15:30:00,
2013-03-24 09:35:00,27.7,13.2,30.28,West,260,0.0,0.0,54,0.00,,,0.00,Wunderground v.1.15,2013-03-24 15:35:00,
2013-03-24 09:40:00,27.6,14.3,30.28,SSE,157,0.0,0.0,57,0.00,,,0.00,Wunderground v.1.15,2013-03-24 15:40:00,
2013-03-24 09:50:00,26.3,13.5,30.28,South,173,0.0,0.0,58,0.00,,,0.00,Wunderground v.1.15,2013-03-24 15:50:00,
2013-03-24 09:55:00,27.4,14.9,30.29,East,96,0.0,0.0,59,0.00,,,0.00,Wunderground v.1.15,2013-03-24 15:55:00,
2013-03-24 10:00:00,26.5,12.5,30.29,ESE,105,0.0,0.0,55,0.00,,,0.00,Wunderground v.1.15,2013-03-24 16:00:00,
2013-03-24 10:05:00,25.8,11.8,30.29,ESE,110,0.0,0.0,55,0.00,,,0.00,Wunderground v.1.15,2013-03-24 16:05:00,
2013-03-24 10:15:00,25.0,11.5,30.29,ENE,67,0.0,0.0,56,0.00,,,0.00,Wunderground v.1.15,2013-03-24 16:15:00,
2013-03-24 10:20:00,24.1,11.0,30.29,ESE,118,0.0,0.0,57,0.00,,,0.00,Wunderground v.1.15,2013-03-24 16:20:00,
2013-03-24 10:30:00,23.4,11.9,30.29,ESE,121,0.0,0.0,61,0.00,,,0.00,Wunderground v.1.15,2013-03-24 16:30:00,
2013-03-24 10:35:00,23.2,12.1,30.30,East,89,0.0,0.0,62,0.00,,,0.00,Wunderground v.1.15,2013-03-24 16:35:00,
2013-03-24 10:40:00,22.8,12.4,30.30,SE,135,0.0,0.0,64,0.00,,,0.00,Wunderground v.1.15,2013-03-24 16:40:00,
2013-03-24 10:45:00,23.5,13.1,30.30,SE,130,0.0,0.0,64,0.00,,,0.00,Wunderground v.1.15,2013-03-24 16:45:00,
2013-03-24 10:50:00,23.9,13.1,30.30,SE,142,0.0,0.0,63,0.00,,,0.00,Wunderground v.1.15,2013-03-24 16:50:00,
2013-03-24 10:55:00,23.7,12.6,30.30,ENE,62,0.0,0.0,62,0.00,,,0.00,Wunderground v.1.15,2013-03-24 16:55:00,
2013-03-24 11:00:00,23.2,11.7,30.30,East,86,0.0,0.0,61,0.00,,,0.00,Wunderground v.1.15,2013-03-24 17:00:00,
2013-03-24 11:05:00,23.1,13.4,30.30,SE,146,0.0,0.0,66,0.00,,,0.00,Wunderground v.1.15,2013-03-24 17:05:00,
2013-03-24 11:15:00,25.4,14.2,30.30,South,172,0.0,0.0,62,0.00,,,0.00,Wunderground v.1.15,2013-03-24 17:15:00,
2013-03-24 11:20:00,26.1,14.1,30.30,SSE,153,0.0,0.0,60,0.00,,,0.00,Wunderground v.1.15,2013-03-24 17:20:00,
2013-03-24 11:25:00,26.6,15.7,30.30,East,98,0.0,0.0,63,0.00,,,0.00,Wunderground v.1.15,2013-03-24 17:25:00,
2013-03-24 11:30:00,26.8,14.0,30.30,SE,138,0.0,0.0,58,0.00,,,0.00,Wunderground v.1.15,2013-03-24 17:30:00,
2013-03-24 11:35:00,27.0,14.2,30.30,SE,126,0.0,0.0,58,0.00,,,0.01,Wunderground v.1.15,2013-03-24 17:35:00,
2013-03-24 11:45:00,27.5,15.4,30.29,ESE,115,0.0,0.0,60,0.00,,,0.01,Wunderground v.1.15,2013-03-24 17:45:00,
2013-03-24 11:50:00,28.2,14.5,30.30,ESE,106,0.0,0.0,56,0.00,,,0.01,Wunderground v.1.15,2013-03-24 17:50:00,
2013-03-24 11:55:00,28.9,16.0,30.29,South,191,0.0,0.0,58,0.00,,,0.02,Wunderground v.1.15,2013-03-24 17:55:00,
2013-03-24 12:00:00,28.5,13.9,30.30,SE,129,0.0,0.0,54,0.00,,,0.02,Wunderground v.1.15,2013-03-24 18:00:00,
2013-03-24 12:05:00,28.0,13.1,30.29,ENE,71,0.0,0.0,53,0.00,,,0.02,Wunderground v.1.15,2013-03-24 18:05:00,
2013-03-24 12:15:00,26.7,12.7,30.29,ENE,63,0.0,0.0,55,0.00,,,0.03,Wunderground v.1.15,2013-03-24 18:15:00,
2013-03-24 12:20:00,26.5,12.9,30.29,SE,128,0.0,0.0,56,0.00,,,0.03,Wunderground v.1.15,2013-03-24 18:20:00,
2013-03-24 12:25:00,26.7,12.3,30.29,SSW,203,0.0,0.0,54,0.00,,,0.03,Wunderground v.1.15,2013-03-24 18:25:00,
2013-03-24 12:30:00,26.3,12.3,30.29,East,95,0.0,0.0,55,0.00,,,0.03,Wunderground v.1.15,2013-03-24 18:30:00,
2013-03-24 12:35:00,26.0,13.2,30.29,ESE,105,0.0,0.0,58,0.00,,,0.03,Wunderground v.1.15,2013-03-24 18:35:00,
2013-03-24 12:40:00,26.2,13.0,30.28,SE,128,0.0,0.0,57,0.00,,,0.03,Wunderground v.1.15,2013-03-24 18:40:00,
2013-03-24 12:45:00,26.5,12.9,30.29,SE,143,0.0,0.0,56,0.00,,,0.04,Wunderground v.1.15,2013-03-24 18:45:00,
2013-03-24 12:50:00,26.7,14.3,30.29,SE,135,0.0,0.0,59,0.00,,,0.04,Wunderground v.1.15,2013-03-24 18:50:00,
2013-03-24 12:55:00,25.9,11.9,30.28,NE,53,0.0,0.0,55,0.00,,,0.04,Wunderground v.1.15,2013-03-24 18:55:00,
2013-03-24 13:05:00,25.7,13.3,30.28,East,86,0.0,0.0,59,0.00,,,0.04,Wunderground v.1.15,2013-03-24 19:05:00,
2013-03-24 13:15:00,26.3,13.9,30.29,East,83,0.0,0.0,59,0.00,,,0.04,Wunderground v.1.15,2013-03-24 19:15:00,
2013-03-24 13:20:00,26.3,12.7,30.28,NE,39,0.0,0.0,56,0.00,,,0.04,Wunderground v.1.15,2013-03-24 19:20:00,
2013-03-24 13:30:00,26.3,13.5,30.28,ESE,107,0.0,0.0,58,0.00,,,0.05,Wunderground v.1.15,2013-03-24 19:30:00,
2013-03-24 13:40:00,26.1,13.3,30.28,ESE,112,0.0,0.0,58,0.00,,,0.05,Wunderground v.1.15,2013-03-24 19:40:00,
2013-03-24 13:45:00,26.7,13.5,30.28,SW,214,0.0,0.0,57,0.00,,,0.05,Wunderground v.1.15,2013-03-24 19:45:00,
2013-03-24 13:50:00,27.7,14.0,30.28,SE,135,0.0,0.0,56,0.00,,,0.05,Wunderground v.1.15,2013-03-24 19:50:00,
2013-03-24 13:55:00,28.0,13.9,30.28,ESE,118,0.0,0.0,55,0.00,,,0.05,Wunderground v.1.15,2013-03-24 19:55:00,
2013-03-24 14:00:00,27.9,14.2,30.28,East,85,0.0,0.0,56,0.00,,,0.05,Wunderground v.1.15,2013-03-24 20:00:00,
2013-03-24 14:05:00,26.9,13.3,30.28,NE,47,0.0,0.0,56,0.00,,,0.06,Wunderground v.1.15,2013-03-24 20:05:00,
2013-03-24 14:15:00,26.2,13.8,30.28,ESE,113,0.0,0.0,59,0.00,,,0.06,Wunderground v.1.15,2013-03-24 20:15:00,
2013-03-24 14:20:00,26.7,14.7,30.28,SSE,160,0.0,0.0,60,0.00,,,0.06,Wunderground v.1.15,2013-03-24 20:20:00,
2013-03-24 14:25:00,27.4,15.7,30.28,South,173,0.0,0.0,61,0.00,,,0.06,Wunderground v.1.15,2013-03-24 20:25:00,
2013-03-24 14:30:00,27.9,14.6,30.27,NE,37,0.0,0.0,57,0.00,,,0.06,Wunderground v.1.15,2013-03-24 20:30:00,
2013-03-24 14:35:00,27.1,13.9,30.27,ENE,68,0.0,0.0,57,0.00,,,0.07,Wunderground v.1.15,2013-03-24 20:35:00,
2013-03-24 14:40:00,26.5,14.1,30.27,ENE,61,0.0,0.0,59,0.00,,,0.07,Wunderground v.1.15,2013-03-24 20:40:00,
2013-03-24 14:45:00,25.5,14.3,30.28,ENE,77,0.0,0.0,62,0.00,,,0.07,Wunderground v.1.15,2013-03-24 20:45:00,
2013-03-24 14:55:00,26.3,16.1,30.28,SE,133,0.0,0.0,65,0.00,,,0.07,Wunderground v.1.15,2013-03-24 20:55:00,
2013-03-24 15:00:00,26.7,13.9,30.28,NE,43,0.0,0.0,58,0.00,,,0.07,Wunderground v.1.15,2013-03-24 21:00:00,
2013-03-24 15:05:00,26.6,14.9,30.28,SE,138,0.0,0.0,61,0.00,,,0.07,Wunderground v.1.15,2013-03-24 21:05:00,
2013-03-24 15:15:00,26.5,15.2,30.27,SSE,147,0.0,0.0,62,0.00,,,0.07,Wunderground v.1.15,2013-03-24 21:15:00,
2013-03-24 15:20:00,26.6,15.3,30.27,ENE,75,0.0,0.0,62,0.00,,,0.07,Wunderground v.1.15,2013-03-24 21:20:00,
2013-03-24 15:30:00,26.8,14.8,30.27,ENE,57,0.0,0.0,60,0.00,,,0.08,Wunderground v.1.15,2013-03-24 21:30:00,
2013-03-24 15:35:00,27.0,14.9,30.28,ESE,115,0.0,0.0,60,0.00,,,0.08,Wunderground v.1.15,2013-03-24 21:35:00,
2013-03-24 15:40:00,27.4,14.9,30.28,NE,50,0.0,0.0,59,0.00,,,0.08,Wunderground v.1.15,2013-03-24 21:40:00,
2013-03-24 15:45:00,26.8,14.0,30.27,SE,129,0.0,0.0,58,0.00,,,0.08,Wunderground v.1.15,2013-03-24 21:45:00,
2013-03-24 15:50:00,27.5,15.0,30.27,ENE,60,0.0,0.0,59,0.00,,,0.08,Wunderground v.1.15,2013-03-24 21:50:00,
2013-03-24 15:55:00,27.7,15.6,30.27,East,93,0.0,0.0,60,0.00,,,0.08,Wunderground v.1.15,2013-03-24 21:55:00,
2013-03-24 16:00:00,28.4,15.9,30.27,SSW,193,0.0,0.0,59,0.00,,,0.08,Wunderground v.1.15,2013-03-24 22:00:00,
2013-03-24 16:10:00,27.5,14.6,30.27,ENE,62,0.0,0.0,58,0.00,,,0.08,Wunderground v.1.15,2013-03-24 22:10:00,
2013-03-24 16:15:00,26.9,15.2,30.27,ESE,118,0.0,0.0,61,0.00,,,0.08,Wunderground v.1.15,2013-03-24 22:15:00,
2013-03-24 16:20:00,27.4,16.1,30.27,SE,127,0.0,0.0,62,0.00,,,0.08,Wunderground v.1.15,2013-03-24 22:20:00,
2013-03-24 16:25:00,28.0,15.5,30.27,SSE,149,0.0,0.0,59,0.00,,,0.08,Wunderground v.1.15,2013-03-24 22:25:00,
2013-03-24 16:30:00,28.4,15.9,30.27,SE,124,0.0,0.0,59,0.00,,,0.08,Wunderground v.1.15,2013-03-24 22:30:00,
2013-03-24 16:35:00,28.4,16.7,30.27,SSE,162,0.0,0.0,61,0.00,,,0.08,Wunderground v.1.15,2013-03-24 22:35:00,
2013-03-24 16:40:00,28.5,14.4,30.27,ESE,121,0.0,0.0,55,0.00,,,0.08,Wunderground v.1.15,2013-03-24 22:40:00,
2013-03-24 16:50:00,27.6,15.1,30.27,ESE,118,0.0,0.0,59,0.00,,,0.08,Wunderground v.1.15,2013-03-24 22:50:00,
2013-03-24 16:55:00,27.4,14.5,30.28,SSE,160,0.0,0.0,58,0.00,,,0.08,Wunderground v.1.15,2013-03-24 22:55:00,
2013-03-24 17:00:00,26.3,13.9,30.28,East,100,0.0,0.0,59,0.00,,,0.08,Wunderground v.1.15,2013-03-24 23:00:00,
2013-03-24 17:10:00,26.7,15.0,30.28,SE,129,0.0,0.0,61,0.00,,,0.08,Wunderground v.1.15,2013-03-24 23:10:00,
2013-03-24 17:15:00,27.2,15.1,30.28,SSE,167,0.0,0.0,60,0.00,,,0.08,Wunderground v.1.15,2013-03-24 23:15:00,
2013-03-24 17:20:00,27.5,14.6,30.28,SE,143,0.0,0.0,58,0.00,,,0.08,Wunderground v.1.15,2013-03-24 23:20:00,
2013-03-24 17:25:00,27.7,15.2,30.28,East,101,0.0,0.0,59,0.00,,,0.08,Wunderground v.1.15,2013-03-24 23:25:00,
2013-03-24 17:35:00,28.4,15.1,30.28,East,90,0.0,0.0,57,0.00,,,0.08,Wunderground v.1.15,2013-03-24 23:35:00,
2013-03-24 17:40:00,28.4,15.5,30.28,ESE,113,0.0,0.0,58,0.00,,,0.08,Wunderground v.1.15,2013-03-24 23:40:00,
2013-03-24 17:45:00,28.3,14.6,30.28,ESE,117,0.0,0.0,56,0.00,,,0.08,Wunderground v.1.15,2013-03-24 23:45:00,
2013-03-24 17:50:00,27.6,14.3,30.28,ENE,63,0.0,0.0,57,0.00,,,0.08,Wunderground v.1.15,2013-03-24 23:50:00,
2013-03-24 17:55:00,27.0,14.9,30.29,East,96,0.0,0.0,60,0.00,,,0.08,Wunderground v.1.15,2013-03-24 23:55:00,
2013-03-24 18:00:00,26.6,14.2,30.29,SSE,151,0.0,0.0,59,0.00,,,0.08,Wunderground v.1.15,2013-03-25 00:00:00,
2013-03-24 18:10:00,26.0,13.2,30.30,East,95,0.0,0.0,58,0.00,,,0.08,Wunderground v.1.15,2013-03-25 00:10:00,
2013-03-24 18:15:00,26.1,14.1,30.30,SE,137,0.0,0.0,60,0.00,,,0.08,Wunderground v.1.15,2013-03-25 00:15:00,
2013-03-24 18:20:00,25.8,13.8,30.30,ENE,68,0.0,0.0,60,0.00,,,0.08,Wunderground v.1.15,2013-03-25 00:20:00,
2013-03-24 18:25:00,26.0,14.8,30.30,NE,47,0.0,0.0,62,0.00,,,0.08,Wunderground v.1.15,2013-03-25 00:25:00,
2013-03-24 18:30:00,26.2,13.4,30.30,SE,133,0.0,0.0,58,0.00,,,0.08,Wunderground v.1.15,2013-03-25 00:30:00,
2013-03-24 18:35:00,26.3,14.3,30.31,SE,124,0.0,0.0,60,0.00,,,0.08,Wunderground v.1.15,2013-03-25 00:35:00,
2013-03-24 18:45:00,25.7,14.1,30.31,ESE,113,0.0,0.0,61,0.00,,,0.08,Wunderground v.1.15,2013-03-25 00:45:00,
2013-03-24 18:50:00,25.3,13.7,30.31,ESE,114,0.0,0.0,61,0.00,,,0.08,Wunderground v.1.15,2013-03-25 00:50:00,
2013-03-24 18:55:00,24.9,13.7,30.31,SE,143,0.0,0.0,62,0.00,,,0.08,Wunderground v.1.15,2013-03-25 00:55:00,
2013-03-24 19:00:00,24.6,13.4,30.32,ESE,120,0.0,0.0,62,0.00,,,0.08,Wunderground v.1.15,2013-03-25 01:00:00,
2013-03-24 19:05:00,24.3,13.9,30.31,SE,124,0.0,0.0,64,0.00,,,0.08,Wunderground v.1.15,2013-03-25 01:05:00,
2013-03-24 19:15:00,23.9,13.8,30.32,SE,136,0.0,0.0,65,0.00,,,0.08,Wunderground v.1.15,2013-03-25 01:15:00,
2013-03-24 19:20:00,23.7,13.3,30.32,SE,127,0.0,0.0,64,0.00,,,0.08,Wunderground v.1.15,2013-03-25 01:20:00,
2013-03-24 19:25:00,23.5,13.8,30.32,SE,128,0.0,0.0,66,0.00,,,0.08,Wunderground v.1.15,2013-03-25 01:25:00,
2013-03-24 19:30:00,23.3,14.0,30.32,SE,144,0.0,0.0,67,0.00,,,0.08,Wunderground v.1.15,2013-03-25 01:30:00,
2013-03-24 19:35:00,23.1,13.8,30.33,SSE,148,0.0,0.0,67,0.00,,,0.08,Wunderground v.1.15,2013-03-25 01:35:00,
2013-03-24 19:40:00,23.0,14.0,30.33,SSE,152,0.0,0.0,68,0.00,,,0.08,Wunderground v.1.15,2013-03-25 01:40:00,
2013-03-24 19:45:00,22.8,13.8,30.33,WSW,242,0.0,0.0,68,0.00,,,0.08,Wunderground v.1.15,2013-03-25 01:45:00,
2013-03-24 19:55:00,22.6,13.6,30.33,East,101,0.0,0.0,68,0.00,,,0.08,Wunderground v.1.15,2013-03-25 01:55:00,
2013-03-24 20:05:00,22.5,13.5,30.34,ESE,117,0.0,0.0,68,0.00,,,0.08,Wunderground v.1.15,2013-03-25 02:05:00,
2013-03-24 20:15:00,22.3,14.3,30.34,SE,124,0.0,0.0,71,0.00,,,0.08,Wunderground v.1.15,2013-03-25 02:15:00,
2013-03-24 20:20:00,22.2,14.9,30.35,East,86,0.0,0.0,73,0.00,,,0.08,Wunderground v.1.15,2013-03-25 02:20:00,
2013-03-24 20:25:00,22.0,14.7,30.35,East,86,0.0,0.0,73,0.00,,,0.08,Wunderground v.1.15,2013-03-25 02:25:00,
2013-03-24 20:35:00,21.8,14.5,30.35,NE,54,0.0,0.0,73,0.00,,,0.08,Wunderground v.1.15,2013-03-25 02:35:00,
2013-03-24 20:45:00,21.8,14.5,30.35,NNE,29,0.0,0.0,73,0.00,,,0.08,Wunderground v.1.15,2013-03-25 02:45:00,
2013-03-24 20:50:00,22.0,15.0,30.35,NNE,29,0.0,0.0,74,0.00,,,0.08,Wunderground v.1.15,2013-03-25 02:50:00,
2013-03-24 20:55:00,22.0,15.3,30.36,NNE,29,0.0,0.0,75,0.00,,,0.08,Wunderground v.1.15,2013-03-25 02:55:00,
2013-03-24 21:00:00,22.0,15.3,30.36,NNE,29,0.0,0.0,75,0.00,,,0.08,Wunderground v.1.15,2013-03-25 03:00:00,
2013-03-24 21:05:00,22.0,15.0,30.36,NNE,29,0.0,0.0,74,0.00,,,0.08,Wunderground v.1.15,2013-03-25 03:05:00,
2013-03-24 21:15:00,22.1,14.1,30.37,NNE,29,0.0,0.0,71,0.00,,,0.08,Wunderground v.1.15,2013-03-25 03:15:00,
2013-03-24 21:20:00,22.1,14.8,30.37,East,84,0.0,0.0,73,0.00,,,0.08,Wunderground v.1.15,2013-03-25 03:20:00,
2013-03-24 21:25:00,22.0,15.9,30.38,ENE,72,0.0,0.0,77,0.00,,,0.08,Wunderground v.1.15,2013-03-25 03:25:00,
2013-03-24 21:30:00,21.7,16.2,30.38,ENE,62,0.0,0.0,79,0.00,,,0.08,Wunderground v.1.15,2013-03-25 03:30:00,
2013-03-24 21:35:00,21.5,16.9,30.38,ENE,66,0.0,0.0,82,0.00,,,0.08,Wunderground v.1.15,2013-03-25 03:35:00,
2013-03-24 21:40:00,21.3,16.9,30.38,ENE,64,0.0,0.0,83,0.00,,,0.08,Wunderground v.1.15,2013-03-25 03:40:00,
2013-03-24 21:45:00,21.3,17.2,30.38,ESE,102,0.0,0.0,84,0.00,,,0.08,Wunderground v.1.15,2013-03-25 03:45:00,
2013-03-24 21:50:00,21.2,17.4,30.38,ENE,70,0.0,0.0,85,0.00,,,0.08,Wunderground v.1.15,2013-03-25 03:50:00,
2013-03-24 21:55:00,21.2,17.4,30.38,ENE,70,0.0,0.0,85,0.00,,,0.08,Wunderground v.1.15,2013-03-25 03:55:00,
2013-03-24 22:00:00,21.1,17.0,30.38,ENE,68,0.0,0.0,84,0.00,,,0.08,Wunderground v.1.15,2013-03-25 04:00:00,
2013-03-24 22:10:00,21.1,17.3,30.38,ENE,59,0.0,0.0,85,0.00,,,0.08,Wunderground v.1.15,2013-03-25 04:10:00,
2013-03-24 22:15:00,21.1,17.3,30.38,NE,43,0.0,0.0,85,0.00,,,0.08,Wunderground v.1.15,2013-03-25 04:15:00,
2013-03-24 22:20:00,21.1,17.6,30.38,South,171,0.0,0.0,86,0.00,,,0.08,Wunderground v.1.15,2013-03-25 04:20:00,
2013-03-24 22:25:00,21.0,17.7,30.38,ESE,117,0.0,0.0,87,0.00,,,0.08,Wunderground v.1.15,2013-03-25 04:25:00,
2013-03-24 22:30:00,21.0,17.7,30.38,ESE,122,0.0,0.0,87,0.00,,,0.08,Wunderground v.1.15,2013-03-25 04:30:00,
2013-03-24 22:35:00,20.9,17.6,30.38,East,95,0.0,0.0,87,0.00,,,0.08,Wunderground v.1.15,2013-03-25 04:35:00,
2013-03-24 22:45:00,20.5,17.2,30.38,East,98,0.0,0.0,87,0.00,,,0.08,Wunderground v.1.15,2013-03-25 04:45:00,
2013-03-24 22:55:00,20.4,16.9,30.38,SSE,160,0.0,0.0,86,0.00,,,0.08,Wunderground v.1.15,2013-03-25 04:55:00,
2013-03-24 23:00:00,20.2,16.7,30.39,ESE,118,0.0,0.0,86,0.00,,,0.08,Wunderground v.1.15,2013-03-25 05:00:00,
2013-03-24 23:05:00,20.2,17.0,30.39,SSE,156,0.0,0.0,87,0.00,,,0.08,Wunderground v.1.15,2013-03-25 05:05:00,
2013-03-24 23:15:00,20.2,16.7,30.39,NNE,29,0.0,0.0,86,0.00,,,0.08,Wunderground v.1.15,2013-03-25 05:15:00,
2013-03-24 23:25:00,20.1,16.6,30.39,SSE,153,0.0,0.0,86,0.00,,,0.08,Wunderground v.1.15,2013-03-25 05:25:00,
2013-03-24 23:30:00,20.0,16.2,30.39,East,100,0.0,0.0,85,0.00,,,0.08,Wunderground v.1.15,2013-03-25 05:30:00,
2013-03-24 23:35:00,19.9,16.4,30.39,ESE,118,0.0,0.0,86,0.00,,,0.08,Wunderground v.1.15,2013-03-25 05:35:00,
2013-03-24 23:40:00,19.7,15.9,30.39,ENE,74,0.0,0.0,85,0.00,,,0.08,Wunderground v.1.15,2013-03-25 05:40:00,
2013-03-24 23:45:00,19.6,15.8,30.39,NE,53,0.0,0.0,85,0.00,,,0.08,Wunderground v.1.15,2013-03-25 05:45:00,
2013-03-24 23:50:00,19.5,15.7,30.39,ENE,68,0.0,0.0,85,0.00,,,0.08,Wunderground v.1.15,2013-03-25 05:50:00,